Oelwein, IA

8:53 AM CDT on August 24, 2016 (GMT -0500)
Oelwein Municipal

Weather History for KOLZ - January, 2013

Change the Weather History Date:

Saturday, January 12, 2013

  Actual Average Record
Temperature  
Mean Temperature 30 °F -  
Max Temperature 44 °F 24 °F 50 °F (2006)
Min Temperature 17 °F 4 °F -26 °F (1974)
Degree Days  
Heating Degree Days 34    
Moisture  
Dew Point 19 °F    
Average Humidity 74    
Maximum Humidity 100    
Minimum Humidity 59    
Precipitation  
Precipitation 0.00 in - - ()
Sea Level Pressure  
Sea Level Pressure 29.89 in    
Wind  
Wind Speed 19 mph (West)    
Max Wind Speed 32 mph    
Max Gust Speed 39 mph    
Visibility 10 miles    
Events      
Averages and records for this station are not official NWS values.
T = Trace of Precipitation, MM = Missing Value Source: NWS Daily Summary

Daily Weather History Graph

Daily Weather History Graph

Search for Another Location

Airport or City:

Trip Planner

Search our weather history database for the weather conditions in past years. The results will help you decide how hot, cold, wet, or windy it might be!

Date:

Astronomy

Jan. 12, 2013 Rise Set
Actual Time 7:36 AM CST 4:56 PM CST
Civil Twilight 7:05 AM CST 5:27 PM CST
Nautical Twilight 6:30 AM CST 6:02 PM CST
Astronomical Twilight 5:56 AM CST 6:36 PM CST
Moon 7:53 AM CST (1/12) 6:28 PM CST (1/12)
Length of Visible Light 10h 22m
Length of Day
9h 19m
New Moon, 1% of the Moon is Illuminated
Jan 12
New Moon
Jan 18
First Quarter
Jan 26
Full
Feb 3
Last Quarter
Feb 10
New

Hourly Weather History & Observations

Time (CST) Temp. Windchill Dew Point Humidity Pressure Visibility Wind Dir Wind Speed Gust Speed Precip Events Conditions
12:15 AM 44.6 °F 37.2 °F 41.0 °F 87% 29.51 in 10.0 mi South 17.3 mph - N/A   Clear
12:35 AM 44.6 °F 37.2 °F 41.0 °F 87% 29.52 in 10.0 mi South 17.3 mph - N/A   Clear
12:55 AM 44.6 °F 36.9 °F 41.0 °F 87% 29.52 in 10.0 mi South 18.4 mph - N/A   Clear
1:15 AM 44.6 °F 36.9 °F 41.0 °F 87% 29.53 in 10.0 mi South 18.4 mph - N/A   Clear
1:55 AM 44.6 °F 36.9 °F 41.0 °F 87% 29.57 in 10.0 mi SW 18.4 mph 23.0 mph N/A   Clear
2:15 AM 42.8 °F 33.1 °F 39.2 °F 87% 29.60 in 10.0 mi West 25.3 mph 32.2 mph N/A   Scattered Clouds
2:35 AM 39.2 °F 30.5 °F 37.4 °F 93% 29.62 in 7.0 mi WSW 16.1 mph 19.6 mph N/A   Scattered Clouds
2:55 AM 37.4 °F 27.5 °F 35.6 °F 93% 29.64 in 10.0 mi WSW 18.4 mph 24.2 mph N/A   Scattered Clouds
3:15 AM 35.6 °F 23.4 °F 33.8 °F 93% 29.67 in 10.0 mi West 25.3 mph 34.5 mph N/A   Mostly Cloudy
3:35 AM 33.8 °F 21.0 °F 32.0 °F 93% 29.68 in 10.0 mi West 25.3 mph 32.2 mph N/A   Mostly Cloudy
3:55 AM 33.8 °F 20.5 °F 32.0 °F 93% 29.69 in 10.0 mi WSW 27.6 mph 34.5 mph N/A   Scattered Clouds
4:15 AM 32.0 °F 18.4 °F 32.0 °F 100% 29.72 in 10.0 mi WSW 26.5 mph 34.5 mph N/A   Mostly Cloudy
4:35 AM 32.0 °F 17.2 °F 30.2 °F 93% 29.73 in 10.0 mi West 32.2 mph 39.1 mph N/A   Scattered Clouds
4:55 AM 32.0 °F 18.6 °F 28.4 °F 87% 29.74 in 10.0 mi West 25.3 mph 36.8 mph N/A   Clear
5:15 AM 32.0 °F 18.9 °F 28.4 °F 87% 29.76 in 10.0 mi WSW 24.2 mph 29.9 mph N/A   Clear
5:35 AM 30.2 °F 15.4 °F 26.6 °F 86% 29.79 in 10.0 mi WSW 28.8 mph 35.7 mph N/A   Clear
5:55 AM 28.4 °F 13.0 °F 21.2 °F 74% 29.80 in 10.0 mi WSW 28.8 mph 32.2 mph N/A   Clear
6:15 AM 28.4 °F 15.8 °F 21.2 °F 74% 29.83 in 10.0 mi West 18.4 mph 32.2 mph N/A   Clear
6:35 AM 26.6 °F 12.4 °F 19.4 °F 74% 29.84 in 10.0 mi West 21.9 mph 32.2 mph N/A   Clear
6:55 AM 26.6 °F 12.4 °F 19.4 °F 74% 29.87 in 10.0 mi West 21.9 mph 26.5 mph N/A   Clear
7:15 AM 24.8 °F 8.1 °F 17.6 °F 74% 29.88 in 10.0 mi West 28.8 mph 32.2 mph N/A   Clear
7:35 AM 24.8 °F 10.7 °F 17.6 °F 74% 29.88 in 10.0 mi West 19.6 mph 29.9 mph N/A   Clear
7:55 AM 24.8 °F 10.3 °F 17.6 °F 74% 29.89 in 10.0 mi West 20.7 mph - N/A   Clear
8:15 AM 24.8 °F 11.9 °F 17.6 °F 74% 29.91 in 10.0 mi WSW 16.1 mph 26.5 mph N/A   Clear
8:35 AM 24.8 °F 11.5 °F 19.4 °F 80% 29.90 in 10.0 mi West 17.3 mph - N/A   Clear
8:55 AM 24.8 °F 11.9 °F 17.6 °F 74% 29.91 in 10.0 mi WSW 16.1 mph 23.0 mph N/A   Clear
9:15 AM 24.8 °F 10.3 °F 17.6 °F 74% 29.92 in 10.0 mi WSW 20.7 mph 26.5 mph N/A   Scattered Clouds
9:55 AM 23.0 °F 7.6 °F 14.0 °F 68% 29.95 in 10.0 mi West 21.9 mph - N/A   Clear
10:15 AM 23.0 °F 7.6 °F 15.8 °F 74% 29.95 in 10.0 mi West 21.9 mph 27.6 mph N/A   Clear
10:35 AM 23.0 °F 10.1 °F 17.6 °F 80% 29.96 in 10.0 mi West 15.0 mph - N/A   Clear
10:55 AM 26.6 °F 14.3 °F 14.0 °F 59% 29.96 in 10.0 mi West 16.1 mph - N/A   Clear
11:15 AM 24.8 °F 10.7 °F 17.6 °F 74% 29.95 in 10.0 mi West 19.6 mph - N/A   Clear
12:15 PM 24.8 °F 10.3 °F 15.8 °F 69% 29.95 in 10.0 mi West 20.7 mph 26.5 mph N/A   Clear
12:35 PM 24.8 °F 10.7 °F 14.0 °F 64% 29.95 in 10.0 mi West 19.6 mph - N/A   Clear
12:55 PM 23.0 °F 8.7 °F 14.0 °F 68% 29.97 in 10.0 mi West 18.4 mph 23.0 mph N/A   Clear
1:35 PM 23.0 °F 8.3 °F 14.0 °F 68% 29.96 in 10.0 mi WNW 19.6 mph 24.2 mph N/A   Clear
1:55 PM 23.0 °F 8.7 °F 12.2 °F 63% 29.97 in 10.0 mi West 18.4 mph 25.3 mph N/A   Clear
2:15 PM 23.0 °F 10.6 °F 14.0 °F 68% 29.97 in 10.0 mi West 13.8 mph - N/A   Clear
2:35 PM 23.0 °F 10.1 °F 12.2 °F 63% 29.97 in 10.0 mi West 15.0 mph - N/A   Clear
2:55 PM 23.0 °F 11.1 °F 14.0 °F 68% 29.99 in 10.0 mi West 12.7 mph - N/A   Clear
3:15 PM 23.0 °F 11.7 °F 14.0 °F 68% 30.00 in 10.0 mi West 11.5 mph - N/A   Clear
3:35 PM 23.0 °F 10.6 °F 12.2 °F 63% 30.02 in 10.0 mi West 13.8 mph 18.4 mph N/A   Clear
3:55 PM 23.0 °F 10.6 °F 12.2 °F 63% 30.01 in 10.0 mi West 13.8 mph 17.3 mph N/A   Clear
4:15 PM 23.0 °F 11.7 °F 14.0 °F 68% 30.01 in 10.0 mi West 11.5 mph - N/A   Clear
4:35 PM 23.0 °F 10.6 °F 12.2 °F 63% 30.01 in 10.0 mi West 13.8 mph - N/A   Clear
4:55 PM 21.2 °F 8.3 °F 12.2 °F 68% 30.01 in 10.0 mi WNW 13.8 mph - N/A   Clear
5:15 PM 21.2 °F 7.8 °F 12.2 °F 68% 29.99 in 10.0 mi WNW 15.0 mph 18.4 mph N/A   Clear
5:35 PM 21.2 °F 7.8 °F 12.2 °F 68% 30.00 in 10.0 mi WNW 15.0 mph 18.4 mph N/A   Clear
5:55 PM 21.2 °F 8.3 °F 12.2 °F 68% 30.01 in 10.0 mi West 13.8 mph - N/A   Clear
6:15 PM 21.2 °F 7.3 °F 12.2 °F 68% 29.99 in 10.0 mi WNW 16.1 mph - N/A   Clear
6:35 PM 21.2 °F 8.3 °F 12.2 °F 68% 30.00 in 10.0 mi West 13.8 mph - N/A   Clear
6:55 PM 21.2 °F 8.9 °F 12.2 °F 68% 30.02 in 10.0 mi WNW 12.7 mph - N/A   Clear
7:15 PM 21.2 °F 8.9 °F 12.2 °F 68% 30.02 in 10.0 mi WNW 12.7 mph - N/A   Clear
7:35 PM 21.2 °F 7.3 °F 10.4 °F 63% 30.04 in 10.0 mi WNW 16.1 mph - N/A   Clear
7:55 PM 21.2 °F 6.8 °F 12.2 °F 68% 30.01 in 10.0 mi WNW 17.3 mph - N/A   Clear
8:15 PM 19.4 °F 6.6 °F 12.2 °F 74% 30.03 in 10.0 mi WNW 12.7 mph - N/A   Clear
8:35 PM 19.4 °F 5.0 °F 10.4 °F 68% 30.02 in 10.0 mi WNW 16.1 mph - N/A   Clear
8:55 PM 19.4 °F 4.5 °F 10.4 °F 68% 30.01 in 10.0 mi WNW 17.3 mph - N/A   Clear
9:15 PM 19.4 °F 3.6 °F 10.4 °F 68% 30.01 in 10.0 mi WNW 19.6 mph - N/A   Clear
9:35 PM 19.4 °F 5.0 °F 10.4 °F 68% 30.02 in 10.0 mi WNW 16.1 mph 21.9 mph N/A   Clear
9:55 PM 17.6 °F 2.7 °F 8.6 °F 68% 30.01 in 10.0 mi WNW 16.1 mph 20.7 mph N/A   Clear
10:15 PM 17.6 °F 3.2 °F 8.6 °F 68% 30.00 in 10.0 mi NW 15.0 mph - N/A   Clear
10:35 PM 17.6 °F 1.7 °F 8.6 °F 68% 30.01 in 10.0 mi NW 18.4 mph - N/A   Clear
10:55 PM 17.6 °F 3.2 °F 8.6 °F 68% 30.01 in 10.0 mi NW 15.0 mph - N/A   Clear
11:15 PM 17.6 °F 3.2 °F 8.6 °F 68% 30.01 in 10.0 mi WNW 15.0 mph - N/A   Clear
11:35 PM 17.6 °F 5.0 °F 10.4 °F 73% 30.01 in 10.0 mi NW 11.5 mph 18.4 mph N/A   Clear
11:55 PM 17.6 °F 5.7 °F 10.4 °F 73% 30.01 in 10.0 mi NNW 10.4 mph - N/A   Scattered Clouds